Location: Chester
(43.2628°N, 72.5951°W)
Time: 01:06:14
(UTC-05:00)

ISS - Pass Details

Date: 31 January 2021
Orbit: 417 x 422 km, 51.6° (Epoch: 07 March)

Event Time Altitude Azimuth Distance (km) Brightness Sun altitude
Rises 19:53:32 0° 300° (WNW) 2,377 1.0 -31.4°
Reaches altitude 10° 19:55:39 10° 297° (WNW) 1,509 -0.2 -31.8°
Enters shadow 19:55:43 10° 297° (WNW) 1,486 -0.2 -31.8°
